STARLINK-37651, 69353

Orbit data source: Space-Track

STARLINK-37651, 69353 is a payload satellite owned by SpaceX/Seattle (US) in LEO that was launched on Thu, 04 Jun 2026 UTC via an FALCON 9 launch vehicle from the Air Force Eastern Test Range (AFETR). Payload-class satellites include a variety of spacecraft equipped with specific instruments for various scientific and technological missions. These include communications satellites like Starlink; space stations such as the ISS; scientific satellites like the Hubble; Earth observation satellites from companies like Planet Labs, Umbra, and HawkEye 360; GPS; miniature CubeSats for education and research; and military/defense satellites.

Loading next visibility...
Identifier
69353, 2026-123A
Orbit
LEO
Country
Flag of USUS
Related business
Manufacturer
SpaceX/Seattle
Mission
Operational spacecraft
Bus & Motor
STARLINK V2MO, Unknown motor
Mass
575 kg wet, ~530 kg dry
Launch date (UTC)
2026-06-04 (2 months ago)
Launch vehicle
FALCON 9
Launch site
Air Force Eastern Test Range (AFETR)
Object type
Payload
Rocket body
Debris
Shape & HBR
Unknown shape, 17.7 m
Radar Cross Section
Large (>1 m²)

Expand to show TLE details & history
Last TLE update: 11 hours ago

TLE from 11 hours ago
0 STARLINK-37651
1 69353U 26123A   26202.25416908  .00095225  00000-0  61785-3 0  9990
2 69353  53.1598  71.8932 0001085  47.8804 312.2309 15.75259175  7413
Epoch: 2026-07-21T06:06Z
TLE epoch observation values (Epoch: 2026-07-21T06:06:00.208Z)
Latitude
0.00002°
Longitude
41.36585°
Altitude
344.321 km
Speed
7.704 km/s
True Right ascension
04h 47m 34s
True Declination
0° 00' 00"
Sunlit
Object was in daylight at epoch
Visualization orbit readout
Latitude
Unknown
Longitude
Unknown
Altitude
Unknown
Speed
Unknown
Apparent Right ascension
Unknown
Apparent Declination
Unknown
Sunlit
N/A
Visualization observer readout
Local Sidereal Time
05:45:14
Azimuth
Unknown
Elevation
Unknown
Doppler factor
Unknown
Orbital elements
Apogee altitude
344.884 km
Perigee altitude
343.426 km
Semi-major axis
6,722.292 km
Eccentricity
0.00011
Inclination
53.1598°
RAAN
71.8932°
Arg. of periapsis
47.8804°
True anomaly
312.22169°
Mean anomaly
312.2309°
Eccentric anomaly
312.2263°
Mean motion
3.93792 °/min
Orbital period
91.42 mins
BSTAR
0.00061785
Loading maneuver chart data...
Computing Atmospheric mass density...
Loading historical data...
Loading historical data...
Loading historical data...
Loading historical data...
Loading historical data...
Loading historical data...
Loading historical data...

Documentation

Showing up to 5 results
|